Location: *
(43.2048°N, 0.1612°E)
Time: 18:11:29
(UTC+00:00)

Cosmos 2333 Rocket - Pass Details

Date: 30 September 2023
Orbit: 837 x 864 km, 70.8° (Epoch: 05 December)

Event Time Altitude Azimuth Distance (km) Brightness Sun altitude
Rises 03:26:09 0° 334° (NNW) 3,428 5.4 -27.3°
Reaches altitude 10° 03:28:36 10° 333° (NNW) 2,492 4.6 -26.9°
Maximum altitude 03:34:20 81° 248° (WSW) 872 2.1 -25.9°
Drops below altitude 10° 03:40:05 10° 161° (SSE) 2,491 4.6 -24.9°
Sets 03:42:32 0° 160° (SSE) 3,426 5.4 -24.5°
